DW7589 Weather Reports


time (UTC)temp
C
wind
direction
speed
KPH
gust
KPH
rain 1hr
cm
rain 24hr
cm
rain mn
cm
humidity
%
barometer
mb
20260906150236 31 127 3.2 8.0 0.00 0.00 0.00 64 1014.1
20260906145735 31 140 3.2 8.0 0.00 0.00 0.00 66 1014.1
20260906145236 31 103 3.2 6.4 0.00 0.00 0.00 65 1014.0
20260906144735 31 88 1.6 4.8 0.00 0.00 0.00 69 1014.0
20260906144236 30 159 1.6 4.8 0.00 0.00 0.00 70 1014.0
20260906143736 30 0 0.0 4.8 0.00 0.00 0.00 72 1014.0
20260906143236 29 199 1.6 3.2 0.00 0.00 0.00 75 1014.0
20260906142736 28 261 1.6 3.2 0.00 0.00 0.00 76 1013.9
20260906141736 27 196 1.6 3.2 0.00 0.00 0.00 79 1014.0
20260906141237 27 187 1.6 3.2 0.00 0.00 0.00 81 1014.0
20260906140736 27 173 1.6 4.8 0.00 0.00 0.00 81 1014.1
20260906140237 27 156 1.6 6.4 0.00 0.00 0.00 82 1014.2
20260906135736 27 143 3.2 6.4 0.00 0.00 0.00 83 1014.3
20260906134736 26 139 1.6 6.4 0.00 0.00 0.00 85 1014.2
20260906133236 26 157 1.6 4.8 0.00 0.00 0.00 86 1014.2
20260906132236 25 155 1.6 3.2 0.00 0.00 0.00 87 1014.1
20260906131736 25 149 1.6 3.2 0.00 0.00 0.00 87 1014.2
20260906131237 25 146 1.6 3.2 0.00 0.00 0.00 88 1014.1
20260906130736 25 146 1.6 3.2 0.00 0.00 0.00 88 1014.0
20260906130236 25 149 1.6 3.2 0.00 0.00 0.00 89 1013.9
20260906125736 24 0 0.0 3.2 0.00 0.00 0.00 89 1013.8
20260906125235 24 0 0.0 3.2 0.00 0.00 0.00 89 1013.8
20260906124736 24 0 0.0 3.2 0.00 0.00 0.00 90 1013.7
20260906124237 24 0 0.0 3.2 0.00 0.00 0.00 90 1013.7
20260906123236 23 0 0.0 3.2 0.00 0.00 0.00 90 1013.4
20260906122736 23 0 0.0 3.2 0.00 0.00 0.00 90 1013.4
20260906122236 23 0 0.0 1.6 0.00 0.00 0.00 90 1013.4
20260906121737 23 0 0.0 1.6 0.00 0.00 0.00 90 1013.3
20260906121236 23 0 0.0 1.6 0.00 0.00 0.00 90 1013.2
20260906115236 23 0 0.0 3.2 0.00 0.00 0.00 89 1013.0
20260906114736 24 0 0.0 1.6 0.00 0.00 0.00 88 1013.0
20260906114237 24 0 0.0 0.0 0.00 0.00 0.00 87 1012.9
20260906113237 24 0 0.0 1.6 0.00 0.00 0.00 86 1012.8
20260906112736 24 126 1.6 3.2 0.00 0.00 0.00 85 1012.8
20260906112236 24 130 1.6 3.2 0.00 0.00 0.00 85 1012.7
20260906111736 25 0 0.0 1.6 0.00 0.00 0.00 84 1012.7
20260906111236 25 0 0.0 1.6 0.00 0.00 0.00 83 1012.7
20260906110736 25 0 0.0 1.6 0.00 0.00 0.00 83 1012.7
20260906110238 25 0 0.0 1.6 0.00 0.00 0.00 83 1012.7
20260906105736 25 0 0.0 1.6 0.00 0.00 0.00 83 1012.5
20260906105237 25 0 0.0 1.6 0.00 0.00 0.00 83 1012.4
20260906104738 25 0 0.0 1.6 0.00 0.00 0.00 83 1012.3
20260906104236 25 0 0.0 0.0 0.00 0.00 0.00 83 1012.2
20260906103735 25 0 0.0 0.0 0.00 0.00 0.00 82 1012.2
20260906103236 25 0 0.0 0.0 0.00 0.00 0.00 82 1012.2
20260906102736 25 0 0.0 1.6 0.00 0.00 0.00 82 1012.2
20260906101736 25 0 0.0 1.6 0.00 0.00 0.00 82 1012.2
20260906101238 25 0 0.0 1.6 0.00 0.00 0.00 82 1012.1
20260906100737 25 0 0.0 1.6 0.00 0.00 0.00 82 1012.2
20260906100236 25 0 0.0 3.2 0.00 0.00 0.00 82 1012.2
20260906095736 25 0 0.0 3.2 0.00 0.00 0.00 81 1012.2
20260906095236 25 0 0.0 3.2 0.00 0.00 0.00 81 1012.1
20260906094736 25 0 0.0 1.6 0.00 0.00 0.00 81 1012.1
20260906093736 25 0 0.0 3.2 0.00 0.00 0.00 81 1012.0
20260906093237 25 0 0.0 3.2 0.00 0.00 0.00 80 1012.0
20260906092236 25 0 0.0 1.6 0.00 0.00 0.00 80 1011.9
20260906091737 25 0 0.0 1.6 0.00 0.00 0.00 80 1011.8
20260906091236 25 0 0.0 1.6 0.00 0.00 0.00 80 1011.8
20260906090737 25 0 0.0 3.2 0.00 0.00 0.00 79 1011.9
20260906090237 25 0 0.0 3.2 0.00 0.00 0.00 79 1011.7
20260906085737 25 153 1.6 3.2 0.00 0.00 0.00 79 1011.7
20260906085236 26 155 1.6 3.2 0.00 0.00 0.00 78 1011.8
20260906084736 26 159 1.6 3.2 0.00 0.00 0.00 78 1011.7
20260906084236 26 163 1.6 4.8 0.00 0.00 0.00 77 1011.8
20260906083738 26 165 1.6 4.8 0.00 0.00 0.00 77 1011.7
20260906083236 26 0 0.0 4.8 0.00 0.00 0.00 77 1011.7
20260906082736 26 0 0.0 4.8 0.00 0.00 0.00 77 1011.8
20260906082236 26 0 0.0 4.8 0.00 0.00 0.00 77 1011.8
20260906081737 26 0 0.0 4.8 0.00 0.00 0.00 76 1011.8
20260906081237 26 0 0.0 3.2 0.00 0.00 0.00 76 1011.8
20260906080237 26 0 0.0 1.6 0.00 0.00 0.00 76 1011.9
20260906075736 26 0 0.0 3.2 0.00 0.00 0.00 76 1011.9
20260906075237 26 0 0.0 3.2 0.00 0.00 0.00 75 1012.0
20260906074736 26 0 0.0 3.2 0.00 0.00 0.00 75 1012.1
20260906074236 26 0 0.0 3.2 0.00 0.00 0.00 75 1012.1
20260906073736 26 0 0.0 3.2 0.00 0.00 0.00 75 1012.2
20260906073237 26 182 1.6 3.2 0.00 0.00 0.00 74 1012.2
20260906072737 26 170 1.6 3.2 0.00 0.00 0.00 74 1012.2
20260906072236 26 157 1.6 6.4 0.00 0.00 0.00 75 1012.2
20260906071236 26 157 1.6 6.4 0.00 0.00 0.00 75 1012.5
20260906070738 26 153 1.6 6.4 0.00 0.00 0.00 75 1012.6
20260906070236 26 159 1.6 3.2 0.00 0.00 0.00 75 1012.6
20260906065737 26 166 1.6 3.2 0.00 0.00 0.00 74 1012.6
20260906065236 27 162 1.6 3.2 0.00 0.00 0.00 74 1012.6
20260906064738 27 155 1.6 3.2 0.00 0.00 0.00 74 1012.7
20260906064236 27 152 1.6 3.2 0.00 0.00 0.00 73 1012.8
20260906063237 27 146 1.6 3.2 0.00 0.00 0.00 73 1012.8
20260906062736 27 146 1.6 4.8 0.00 0.00 0.00 73 1012.8
20260906062237 27 146 1.6 4.8 0.00 0.00 0.00 73 1012.8
20260906061237 27 152 1.6 6.4 0.00 0.00 0.00 72 1012.8
20260906060737 27 158 1.6 6.4 0.00 0.00 0.00 72 1012.8
20260906060236 27 158 1.6 4.8 0.00 0.00 0.00 72 1012.8
20260906055737 27 155 1.6 6.4 0.00 0.00 0.00 72 1012.9
20260906054737 27 158 1.6 3.2 0.00 0.00 0.00 71 1012.7
20260906054236 27 160 1.6 4.8 0.00 0.00 0.00 71 1012.8
20260906053737 27 162 1.6 4.8 0.00 0.00 0.00 71 1012.7
20260906053238 27 170 1.6 3.2 0.00 0.00 0.00 71 1012.8
20260906052738 27 179 1.6 3.2 0.00 0.00 0.00 70 1012.7
20260906052236 27 177 1.6 3.2 0.00 0.00 0.00 70 1012.7
20260906051737 28 179 1.6 3.2 0.00 0.00 0.00 70 1012.6
20260906051238 28 176 1.6 4.8 0.00 0.00 0.00 70 1012.6
20260906050737 28 174 1.6 4.8 0.00 0.00 0.00 69 1012.7
20260906050236 28 176 1.6 6.4 0.00 0.00 0.00 69 1012.6
20260906045737 28 168 3.2 6.4 0.00 0.00 0.00 69 1012.6
20260906045236 28 157 3.2 6.4 0.00 0.00 0.00 69 1012.7
20260906044237 28 162 4.8 9.7 0.00 0.00 0.00 69 1012.8
20260906043736 28 159 4.8 8.0 0.00 0.00 0.00 69 1012.7
20260906043238 28 159 3.2 8.0 0.00 0.00 0.00 69 1012.8
20260906042237 28 172 1.6 4.8 0.00 0.00 0.00 69 1012.6
20260906041736 28 172 3.2 6.4 0.00 0.00 0.00 69 1012.4
20260906041237 28 169 1.6 6.4 0.00 0.00 0.00 68 1012.4
20260906040736 28 164 1.6 6.4 0.00 0.00 0.00 68 1012.4
20260906035736 28 156 3.2 8.0 0.00 0.00 0.00 68 1012.6
20260906035237 29 155 4.8 8.0 0.00 0.00 0.00 68 1012.5
20260906034737 29 154 4.8 9.7 0.00 0.00 0.00 67 1012.6
20260906034237 29 154 4.8 9.7 0.00 0.00 0.00 67 1012.6
20260906033237 29 155 3.2 8.0 0.00 0.00 0.00 65 1012.5
20260906032237 30 152 4.8 9.7 0.00 0.00 0.00 65 1012.6
20260906031737 30 153 3.2 8.0 0.00 0.00 0.00 65 1012.5
20260906031236 30 154 3.2 8.0 0.00 0.00 0.00 64 1012.5
20260906030737 30 154 4.8 8.0 0.00 0.00 0.00 64 1012.4
20260906030236 30 154 4.8 8.0 0.00 0.00 0.00 63 1012.4
20260906024736 30 146 3.2 8.0 0.00 0.00 0.00 62 1012.2
20260906023736 30 148 4.8 11.3 0.00 0.00 0.00 61 1012.0
20260906023237 30 146 4.8 11.3 0.00 0.00 0.00 61 1011.9
20260906022738 31 142 4.8 8.0 0.00 0.00 0.00 61 1011.8
20260906022236 31 143 3.2 8.0 0.00 0.00 0.00 61 1011.8
20260906021737 31 149 4.8 8.0 0.00 0.00 0.00 60 1011.7
20260906021236 31 154 4.8 9.7 0.00 0.00 0.00 59 1011.6
20260906020737 31 153 4.8 12.9 0.00 0.00 0.00 59 1011.5
20260906020237 31 152 6.4 12.9 0.00 0.00 0.00 59 1011.5
20260906015736 31 152 8.0 12.9 0.00 0.00 0.00 58 1011.4
20260906014737 31 151 8.0 14.5 0.00 0.00 0.00 57 1011.4
20260906014237 32 151 6.4 14.5 0.00 0.00 0.00 57 1011.3
20260906013737 32 149 6.4 11.3 0.00 0.00 0.00 55 1011.3
20260906013238 32 146 8.0 12.9 0.00 0.00 0.00 55 1011.1
20260906012737 32 143 6.4 12.9 0.00 0.00 0.00 55 1011.1
20260906012236 32 148 4.8 12.9 0.00 0.00 0.00 54 1011.0
20260906011737 32 146 4.8 11.3 0.00 0.00 0.00 54 1010.9
20260906011236 32 146 4.8 11.3 0.00 0.00 0.00 55 1010.9
20260906010737 32 151 4.8 8.0 0.00 0.00 0.00 56 1010.9
20260906010238 32 152 4.8 11.3 0.00 0.00 0.00 55 1010.7
20260906005737 32 153 4.8 11.3 0.00 0.00 0.00 55 1010.7
20260906005236 32 153 6.4 11.3 0.00 0.00 0.00 55 1010.6
20260906004737 32 152 6.4 12.9 0.00 0.00 0.00 56 1010.7
20260906004236 33 150 6.4 12.9 0.00 0.00 0.00 55 1010.6
20260906003737 33 150 6.4 12.9 0.00 0.00 0.00 54 1010.6
20260906003238 33 144 6.4 11.3 0.00 0.00 0.00 52 1010.6
20260906001736 33 147 8.0 14.5 0.00 0.00 0.00 50 1010.6
20260906001238 33 147 6.4 14.5 0.00 0.00 0.00 49 1010.5
20260906000736 34 141 6.4 14.5 0.00 0.00 0.00 49 1010.5
20260906000237 34 141 6.4 14.5 0.00 0.00 0.00 49 1010.4
20260905235736 34 137 8.0 17.7 0.00 0.00 0.00 50 1010.5
20260905235237 34 139 9.7 17.7 0.00 0.00 0.00 49 1010.4
20260905234737 34 144 9.7 17.7 0.00 0.00 0.00 49 1010.4
20260905234237 35 136 8.0 16.1 0.00 0.00 0.00 48 1010.3
20260905233738 35 126 6.4 17.7 0.00 0.00 0.00 47 1010.4
20260905233237 35 126 6.4 17.7 0.00 0.00 0.00 46 1010.4
20260905232738 35 128 6.4 16.1 0.00 0.00 0.00 45 1010.4
20260905232236 35 122 4.8 12.9 0.00 0.00 0.00 46 1010.4
20260905231738 35 103 4.8 14.5 0.00 0.00 0.00 46 1010.4
20260905231237 35 113 4.8 14.5 0.00 0.00 0.00 45 1010.5
20260905230236 36 119 4.8 12.9 0.00 0.00 0.00 45 1010.6
20260905225737 37 139 4.8 12.9 0.00 0.00 0.00 41 1010.5
20260905224738 37 164 4.8 9.7 0.00 0.00 0.00 38 1010.2
20260905224237 37 153 6.4 11.3 0.00 0.00 0.00 38 1010.3
20260905223737 37 152 4.8 11.3 0.00 0.00 0.00 39 1010.3
20260905223237 37 154 4.8 8.0 0.00 0.00 0.00 39 1010.1
20260905222737 37 146 3.2 9.7 0.00 0.00 0.00 39 1010.1
20260905222238 37 131 4.8 11.3 0.00 0.00 0.00 38 1010.1
20260905221737 37 131 3.2 11.3 0.00 0.00 0.00 38 1010.0
20260905221237 37 143 3.2 8.0 0.00 0.00 0.00 37 1010.0
20260905220738 37 142 3.2 8.0 0.00 0.00 0.00 37 1010.1
20260905220237 37 86 3.2 8.0 0.00 0.00 0.00 36 1010.0
20260905215237 37 152 3.2 11.3 0.00 0.00 0.00 36 1010.0
20260905213237 37 137 3.2 9.7 0.00 0.00 0.00 36 1010.4
20260905212738 37 131 3.2 9.7 0.00 0.00 0.00 36 1010.5
20260905212239 37 134 3.2 9.7 0.00 0.00 0.00 37 1010.6
20260905211737 37 145 3.2 9.7 0.00 0.00 0.00 36 1010.8
20260905210737 37 144 4.8 11.3 0.00 0.00 0.00 38 1010.8
20260905210237 37 148 4.8 11.3 0.00 0.00 0.00 37 1010.8
20260905205737 37 149 3.2 8.0 0.00 0.00 0.00 38 1010.8
20260905205237 37 143 1.6 8.0 0.00 0.00 0.00 37 1010.9
20260905204738 37 146 3.2 9.7 0.00 0.00 0.00 39 1011.0
20260905204237 37 142 3.2 9.7 0.00 0.00 0.00 38 1011.1
20260905203738 37 125 3.2 8.0 0.00 0.00 0.00 37 1011.2
20260905202737 37 146 3.2 8.0 0.00 0.00 0.00 38 1011.3
20260905202237 36 151 3.2 8.0 0.00 0.00 0.00 39 1011.3
20260905201737 37 126 3.2 11.3 0.00 0.00 0.00 40 1011.5
20260905201237 37 122 4.8 11.3 0.00 0.00 0.00 40 1011.5
20260905200236 36 148 4.8 14.5 0.00 0.00 0.00 40 1011.6
20260905194737 36 120 4.8 12.9 0.00 0.00 0.00 42 1012.0
20260905194237 36 234 4.8 12.9 0.00 0.00 0.00 42 1011.9
20260905193737 36 233 4.8 12.9 0.00 0.00 0.00 41 1012.1
20260905193237 36 178 3.2 8.0 0.00 0.00 0.00 42 1012.2
20260905192737 36 191 3.2 6.4 0.00 0.00 0.00 41 1012.2
20260905191737 36 172 4.8 12.9 0.00 0.00 0.00 42 1012.4
20260905190737 36 155 3.2 8.0 0.00 0.00 0.00 43 1012.6
20260905190238 36 188 3.2 8.0 0.00 0.00 0.00 44 1012.6
20260905185737 36 182 3.2 8.0 0.00 0.00 0.00 44 1012.8
20260905184737 36 226 4.8 14.5 0.00 0.00 0.00 45 1013.0
20260905183737 35 157 3.2 11.3 0.00 0.00 0.00 47 1013.2
20260905183238 35 153 3.2 11.3 0.00 0.00 0.00 46 1013.2
20260905182737 35 148 3.2 11.3 0.00 0.00 0.00 46 1013.3
20260905182238 35 150 3.2 11.3 0.00 0.00 0.00 45 1013.4
20260905181737 35 131 4.8 11.3 0.00 0.00 0.00 45 1013.5
20260905181238 35 148 4.8 11.3 0.00 0.00 0.00 47 1013.5
20260905180737 35 159 4.8 12.9 0.00 0.00 0.00 47 1013.7
20260905175737 35 148 3.2 11.3 0.00 0.00 0.00 47 1013.9
20260905175237 35 150 3.2 9.7 0.00 0.00 0.00 47 1013.9
20260905174739 35 166 3.2 9.7 0.00 0.00 0.00 48 1014.0
20260905174238 35 156 3.2 9.7 0.00 0.00 0.00 48 1014.1
20260905173738 35 124 4.8 8.0 0.00 0.00 0.00 47 1014.2
20260905172737 35 146 3.2 11.3 0.00 0.00 0.00 46 1014.2
20260905172237 35 159 3.2 9.7 0.00 0.00 0.00 46 1014.3
20260905171737 35 191 3.2 11.3 0.00 0.00 0.00 46 1014.3
20260905170238 33 158 4.8 11.3 0.00 0.00 0.00 48 1014.4
20260905165237 34 162 3.2 9.7 0.00 0.00 0.00 49 1014.5
20260905164237 33 173 3.2 11.3 0.00 0.00 0.00 51 1014.5
20260905163738 33 175 3.2 11.3 0.00 0.00 0.00 51 1014.5
20260905163238 33 181 3.2 11.3 0.00 0.00 0.00 51 1014.5
20260905162737 33 181 3.2 11.3 0.00 0.00 0.00 51 1014.5
20260905162237 33 158 3.2 9.7 0.00 0.00 0.00 51 1014.5
20260905161737 33 154 3.2 8.0 0.00 0.00 0.00 54 1014.6
20260905161238 33 181 3.2 9.7 0.00 0.00 0.00 54 1014.7
20260905160738 33 202 3.2 9.7 0.00 0.00 0.00 55 1014.6
20260905160237 32 182 3.2 8.0 0.00 0.00 0.00 56 1014.6
20260905155738 32 198 3.2 12.9 0.00 0.00 0.00 57 1014.5
20260905155237 32 222 4.8 12.9 0.00 0.00 0.00 58 1014.5
20260905154738 32 202 3.2 11.3 0.00 0.00 0.00 60 1014.6
20260905153737 31 160 3.2 8.0 0.00 0.00 0.00 61 1014.6
20260905153238 31 171 3.2 8.0 0.00 0.00 0.00 62 1014.5
20260905152737 31 211 3.2 9.7 0.00 0.00 0.00 62 1014.6
20260905152238 31 208 3.2 9.7 0.00 0.00 0.00 63 1014.7
20260905151737 31 211 3.2 12.9 0.00 0.00 0.00 64 1014.7
20260905151238 31 226 3.2 12.9 0.00 0.00 0.00 65 1014.7